TimeCST,TemperatureF,Dew PointF,Humidity,Sea Level PressureIn,VisibilityMPH,Wind Direction,Wind SpeedMPH,Gust SpeedMPH,PrecipitationIn,Events,Conditions,WindDirDegrees,DateUTC
12:15 AM,53.6,50.0,88,30.07,5.0,South,4.6,-,N/A,,Mostly Cloudy,180,2012-12-01 06:15:00
12:35 AM,51.8,48.2,88,30.06,4.0,SSE,5.8,-,N/A,,Scattered Clouds,160,2012-12-01 06:35:00
1:15 AM,51.8,48.2,88,30.05,4.0,SSE,5.8,-,N/A,,Partly Cloudy,160,2012-12-01 07:15:00
1:35 AM,53.6,50.0,88,30.05,5.0,SSE,5.8,-,N/A,,Clear,160,2012-12-01 07:35:00
1:55 AM,53.6,50.0,88,30.05,6.0,South,5.8,-,N/A,,Clear,170,2012-12-01 07:55:00
2:15 AM,55.4,51.8,88,30.04,7.0,South,6.9,-,N/A,,Clear,170,2012-12-01 08:15:00
2:55 AM,55.4,51.8,88,30.04,7.0,SSE,8.1,-,N/A,,Clear,160,2012-12-01 08:55:00
3:35 AM,55.4,51.8,88,30.03,8.0,South,6.9,-,N/A,,Clear,180,2012-12-01 09:35:00
4:15 AM,57.2,51.8,82,30.02,10.0,South,6.9,-,N/A,,Clear,170,2012-12-01 10:15:00
4:55 AM,57.2,53.6,88,30.02,10.0,South,9.2,-,N/A,,Partly Cloudy,170,2012-12-01 10:55:00
5:15 AM,57.2,53.6,88,30.01,10.0,South,9.2,-,N/A,,Mostly Cloudy,170,2012-12-01 11:15:00
6:15 AM,59.0,53.6,82,30.01,10.0,South,9.2,16.1,N/A,,Overcast,170,2012-12-01 12:15:00
6:35 AM,60.8,53.6,77,30.01,10.0,South,9.2,-,N/A,,Overcast,180,2012-12-01 12:35:00
7:15 AM,60.8,53.6,77,30.01,10.0,South,10.4,-,N/A,,Overcast,170,2012-12-01 13:15:00
7:35 AM,60.8,55.4,82,30.01,8.0,South,9.2,-,N/A,,Overcast,180,2012-12-01 13:35:00
7:55 AM,60.8,55.4,82,30.01,8.0,South,9.2,16.1,N/A,,Overcast,170,2012-12-01 13:55:00
8:55 AM,62.6,55.4,77,30.01,10.0,South,12.7,24.2,N/A,,Overcast,180,2012-12-01 14:55:00
9:16 AM,62.6,55.4,77,30.01,10.0,South,16.1,20.7,N/A,,Overcast,190,2012-12-01 15:16:00
9:35 AM,64.4,55.4,73,30.01,10.0,South,17.3,23.0,N/A,,Overcast,190,2012-12-01 15:35:00
9:55 AM,64.4,55.4,73,30.00,10.0,South,15.0,27.6,N/A,,Overcast,180,2012-12-01 15:55:00
10:55 AM,66.2,57.2,73,29.99,10.0,South,19.6,26.5,N/A,,Overcast,190,2012-12-01 16:55:00
11:15 AM,66.2,57.2,73,29.98,10.0,South,15.0,24.2,N/A,,Overcast,190,2012-12-01 17:15:00
11:55 AM,66.2,55.4,68,29.95,10.0,South,18.4,24.2,N/A,,Overcast,180,2012-12-01 17:55:00
12:15 PM,66.2,55.4,68,29.94,10.0,South,16.1,31.1,N/A,,Overcast,180,2012-12-01 18:15:00
12:35 PM,68.0,55.4,64,29.93,10.0,South,16.1,24.2,N/A,,Overcast,180,2012-12-01 18:35:00
12:55 PM,68.0,55.4,64,29.92,10.0,South,20.7,27.6,N/A,,Overcast,180,2012-12-01 18:55:00
1:15 PM,69.8,55.4,60,29.91,10.0,South,19.6,27.6,N/A,,Overcast,180,2012-12-01 19:15:00
1:35 PM,69.8,55.4,60,29.91,9.0,SSW,20.7,29.9,N/A,,Overcast,200,2012-12-01 19:35:00
2:15 PM,69.8,55.4,60,29.89,10.0,South,23.0,31.1,N/A,,Mostly Cloudy,190,2012-12-01 20:15:00
2:35 PM,69.8,55.4,60,29.90,10.0,SSW,18.4,25.3,N/A,,Overcast,200,2012-12-01 20:35:00
3:15 PM,69.8,55.4,60,29.90,10.0,South,17.3,31.1,N/A,,Mostly Cloudy,190,2012-12-01 21:15:00
3:35 PM,69.8,55.4,60,29.90,10.0,South,21.9,29.9,N/A,,Mostly Cloudy,190,2012-12-01 21:35:00
3:55 PM,69.8,55.4,60,29.89,10.0,South,13.8,23.0,N/A,,Mostly Cloudy,190,2012-12-01 21:55:00
4:15 PM,69.8,55.4,60,29.89,10.0,South,18.4,32.2,N/A,,Mostly Cloudy,190,2012-12-01 22:15:00
4:35 PM,69.8,55.4,60,29.89,10.0,South,17.3,28.8,N/A,,Scattered Clouds,190,2012-12-01 22:35:00
4:55 PM,68.0,55.4,64,29.89,10.0,South,16.1,23.0,N/A,,Clear,190,2012-12-01 22:55:00
5:55 PM,66.2,55.4,68,29.89,10.0,South,11.5,18.4,N/A,,Clear,180,2012-12-01 23:55:00
6:15 PM,66.2,55.4,68,29.90,10.0,South,11.5,17.3,N/A,,Clear,190,2012-12-02 00:15:00
6:36 PM,64.4,55.4,73,29.91,10.0,South,10.4,-,N/A,,Clear,190,2012-12-02 00:36:00
7:15 PM,66.2,55.4,68,29.93,10.0,South,12.7,17.3,N/A,,Partly Cloudy,190,2012-12-02 01:15:00
7:35 PM,66.2,55.4,68,29.94,10.0,South,10.4,17.3,N/A,,Clear,190,2012-12-02 01:35:00
7:55 PM,66.2,55.4,68,29.94,10.0,South,13.8,18.4,N/A,,Clear,190,2012-12-02 01:55:00
8:35 PM,-9999,-9999,N/A,29.94,10.0,South,9.2,16.1,N/A,,Clear,190,2012-12-02 02:35:00
9:15 PM,66.2,57.2,73,29.96,10.0,South,11.5,19.6,N/A,,Clear,190,2012-12-02 03:15:00
9:35 PM,66.2,57.2,73,29.96,10.0,South,11.5,-,N/A,,Partly Cloudy,190,2012-12-02 03:35:00
9:55 PM,64.4,57.2,77,29.96,10.0,South,10.4,-,N/A,,Clear,190,2012-12-02 03:55:00
10:16 PM,64.4,57.2,77,29.96,10.0,South,11.5,16.1,N/A,,Clear,190,2012-12-02 04:16:00
10:35 PM,64.4,57.2,77,29.96,10.0,South,11.5,16.1,N/A,,Clear,190,2012-12-02 04:35:00
11:35 PM,64.4,57.2,77,29.97,10.0,South,10.4,-,N/A,,Clear,190,2012-12-02 05:35:00
11:55 PM,64.4,57.2,77,29.97,10.0,SSW,9.2,16.1,N/A,,Clear,200,2012-12-02 05:55:00